Time,TemperatureF,DewpointF,PressureIn,WindDirection,WindDirectionDegrees,WindSpeedMPH,WindSpeedGustMPH,Humidity,HourlyPrecipIn,Conditions,Clouds,dailyrainin,SoftwareType,DateUTC
2013-01-15 00:00:00,29.2,22.9,30.33,NW,315,0.0,4.0,77,0.00,,OVC028,0.00,VWS V14.01,2013-01-15 05:00:00,
2013-01-15 00:01:00,29.2,22.9,30.33,NW,312,1.0,4.0,77,0.00,,OVC028,0.00,VWS V14.01,2013-01-15 05:01:00,
2013-01-15 00:03:00,29.2,22.9,30.33,WNW,294,0.0,1.0,77,0.00,,OVC028,0.00,VWS V14.01,2013-01-15 05:03:00,
2013-01-15 00:08:00,29.2,23.2,30.34,NW,309,0.0,1.0,78,0.00,,OVC028,0.00,VWS V14.01,2013-01-15 05:08:00,
2013-01-15 00:13:00,29.2,22.9,30.33,WSW,252,1.0,3.0,77,0.00,,OVC028,0.00,VWS V14.01,2013-01-15 05:13:00,
2013-01-15 00:18:00,29.2,23.2,30.33,WSW,255,1.0,3.0,78,0.00,,OVC028,0.00,VWS V14.01,2013-01-15 05:18:00,
2013-01-15 00:23:00,29.1,23.1,30.33,WSW,255,0.0,3.0,78,0.00,,OVC028,0.00,VWS V14.01,2013-01-15 05:23:00,
2013-01-15 00:28:00,29.0,23.0,30.33,WSW,255,0.0,3.0,78,0.00,,OVC028,0.00,VWS V14.01,2013-01-15 05:28:00,
2013-01-15 00:30:00,29.0,23.0,30.33,West,280,0.0,3.0,78,0.00,,OVC036,0.00,VWS V14.01,2013-01-15 05:30:00,
2013-01-15 00:34:00,28.9,22.9,30.33,West,280,0.0,0.0,78,0.00,,OVC028,0.00,VWS V14.01,2013-01-15 05:34:00,
2013-01-15 00:39:00,28.8,22.8,30.33,WNW,300,0.0,0.0,78,0.00,,OVC028,0.00,VWS V14.01,2013-01-15 05:39:00,
2013-01-15 00:44:00,28.7,22.7,30.33,WNW,299,0.0,0.0,78,0.00,,OVC028,0.00,VWS V14.01,2013-01-15 05:44:00,
2013-01-15 00:49:00,28.6,22.6,30.33,WNW,299,0.0,0.0,78,0.00,,OVC028,0.00,VWS V14.01,2013-01-15 05:49:00,
2013-01-15 00:54:00,28.4,22.7,30.33,WNW,299,0.0,1.0,79,0.00,,OVC028,0.00,VWS V14.01,2013-01-15 05:54:00,
2013-01-15 00:59:00,28.2,22.5,30.33,North,1,1.0,2.0,79,0.00,,OVC028,0.00,VWS V14.01,2013-01-15 05:59:00,
2013-01-15 01:00:00,28.1,22.4,30.33,NNW,329,0.0,2.0,79,0.00,,OVC036,0.00,VWS V14.01,2013-01-15 06:00:00,
2013-01-15 01:04:00,28.1,22.7,30.33,NNW,331,0.0,1.0,80,0.00,,OVC028,0.00,VWS V14.01,2013-01-15 06:04:00,
2013-01-15 01:10:00,27.9,22.5,30.33,NW,318,0.0,2.0,80,0.00,,OVC028,0.00,VWS V14.01,2013-01-15 06:10:00,
2013-01-15 01:15:00,27.8,22.4,30.33,NNW,335,1.0,2.0,80,0.00,,OVC028,0.00,VWS V14.01,2013-01-15 06:15:00,
2013-01-15 01:20:00,27.8,22.4,30.33,NNW,328,0.0,2.0,80,0.00,,OVC028,0.00,VWS V14.01,2013-01-15 06:20:00,
2013-01-15 01:25:00,27.8,22.4,30.33,NW,326,0.0,2.0,80,0.00,,OVC028,0.00,VWS V14.01,2013-01-15 06:25:00,
2013-01-15 01:30:00,27.7,22.6,30.33,NW,326,0.0,2.0,81,0.00,,OVC028,0.00,VWS V14.01,2013-01-15 06:30:00,
2013-01-15 01:35:00,27.7,22.6,30.33,WSW,256,0.0,0.0,81,0.00,,OVC028,0.00,VWS V14.01,2013-01-15 06:35:00,
2013-01-15 01:40:00,27.8,22.7,30.33,WNW,298,1.0,3.0,81,0.00,,OVC028,0.00,VWS V14.01,2013-01-15 06:40:00,
2013-01-15 01:46:00,27.9,22.8,30.34,WNW,292,1.0,3.0,81,0.00,,OVC110,0.00,VWS V14.01,2013-01-15 06:46:00,
2013-01-15 01:51:00,28.0,22.9,30.34,West,265,0.0,3.0,81,0.00,,OVC110,0.00,VWS V14.01,2013-01-15 06:51:00,
2013-01-15 01:56:00,28.1,23.0,30.34,WSW,245,0.0,3.0,81,0.00,,OVC110,0.00,VWS V14.01,2013-01-15 06:56:00,
2013-01-15 02:00:00,28.1,22.7,30.34,West,262,1.0,3.0,80,0.00,,OVC036,0.00,VWS V14.01,2013-01-15 07:00:00,
2013-01-15 02:01:00,28.1,22.7,30.34,WSW,249,0.0,3.0,80,0.00,,OVC110,0.00,VWS V14.01,2013-01-15 07:01:00,
2013-01-15 02:06:00,28.1,22.7,30.34,West,259,1.0,1.0,80,0.00,,OVC110,0.00,VWS V14.01,2013-01-15 07:06:00,
2013-01-15 02:11:00,27.9,22.5,30.34,WSW,257,0.0,1.0,80,0.00,,OVC110,0.00,VWS V14.01,2013-01-15 07:11:00,
2013-01-15 02:16:00,27.8,22.4,30.35,West,273,0.0,2.0,80,0.00,,OVC110,0.00,VWS V14.01,2013-01-15 07:16:00,
2013-01-15 02:22:00,27.6,22.5,30.35,West,260,0.0,2.0,81,0.00,,OVC110,0.00,VWS V14.01,2013-01-15 07:22:00,
2013-01-15 02:27:00,27.5,22.7,30.35,WSW,256,1.0,2.0,82,0.00,,OVC110,0.00,VWS V14.01,2013-01-15 07:27:00,
2013-01-15 02:30:00,27.7,22.6,30.35,West,272,1.0,2.0,81,0.00,,OVC036,0.00,VWS V14.01,2013-01-15 07:30:00,
2013-01-15 02:32:00,27.7,22.9,30.35,West,259,1.0,2.0,82,0.00,,OVC110,0.00,VWS V14.01,2013-01-15 07:32:00,
2013-01-15 02:37:00,27.8,22.7,30.35,SW,226,3.0,3.0,81,0.00,,OVC110,0.00,VWS V14.01,2013-01-15 07:37:00,
2013-01-15 02:42:00,27.9,22.8,30.34,West,262,0.0,4.0,81,0.00,,OVC110,0.00,VWS V14.01,2013-01-15 07:42:00,
2013-01-15 02:47:00,27.9,22.8,30.34,WSW,253,0.0,4.0,81,0.00,,OVC026,0.00,VWS V14.01,2013-01-15 07:47:00,
2013-01-15 02:52:00,27.9,22.8,30.34,WSW,257,0.0,4.0,81,0.00,,OVC026,0.00,VWS V14.01,2013-01-15 07:52:00,
2013-01-15 02:58:00,27.9,22.8,30.34,SW,228,0.0,4.0,81,0.00,,OVC026,0.00,VWS V14.01,2013-01-15 07:58:00,
2013-01-15 03:00:00,28.0,22.9,30.34,West,273,1.0,4.0,81,0.00,,OVC036,0.00,VWS V14.01,2013-01-15 08:00:00,
2013-01-15 03:03:00,28.0,22.9,30.34,WSW,252,2.0,2.0,81,0.00,,OVC030,0.00,VWS V14.01,2013-01-15 08:03:00,
2013-01-15 03:08:00,28.0,22.6,30.35,West,270,0.0,4.0,80,0.00,,OVC030,0.00,VWS V14.01,2013-01-15 08:08:00,
2013-01-15 03:13:00,27.9,22.5,30.35,WNW,296,0.0,4.0,80,0.00,,OVC030,0.00,VWS V14.01,2013-01-15 08:13:00,
2013-01-15 03:18:00,27.9,22.2,30.35,West,269,1.0,5.0,79,0.00,,OVC030,0.00,VWS V14.01,2013-01-15 08:18:00,
2013-01-15 03:23:00,27.9,22.2,30.35,West,262,0.0,5.0,79,0.00,,OVC030,0.00,VWS V14.01,2013-01-15 08:23:00,
2013-01-15 03:28:00,27.8,22.1,30.34,West,276,0.0,5.0,79,0.00,,OVC030,0.00,VWS V14.01,2013-01-15 08:28:00,
2013-01-15 03:30:00,27.8,21.8,30.34,NW,316,2.0,6.0,78,0.00,,OVC036,0.00,VWS V14.01,2013-01-15 08:30:00,
2013-01-15 03:33:00,27.8,21.9,30.34,WNW,288,2.0,5.0,78,0.00,,OVC030,0.00,VWS V14.01,2013-01-15 08:33:00,
2013-01-15 03:39:00,27.7,21.8,30.34,WSW,247,0.0,5.0,78,0.00,,OVC030,0.00,VWS V14.01,2013-01-15 08:39:00,
2013-01-15 03:44:00,27.7,21.8,30.34,WSW,250,2.0,5.0,78,0.00,,OVC030,0.00,VWS V14.01,2013-01-15 08:44:00,
2013-01-15 03:49:00,27.7,22.0,30.34,North,349,1.0,5.0,79,0.00,,OVC030,0.00,VWS V14.01,2013-01-15 08:49:00,
2013-01-15 03:54:00,27.7,21.8,30.34,WNW,285,0.0,5.0,78,0.00,,OVC030,0.00,VWS V14.01,2013-01-15 08:54:00,
2013-01-15 03:59:00,27.7,22.0,30.33,NW,316,3.0,5.0,79,0.00,,OVC030,0.00,VWS V14.01,2013-01-15 08:59:00,
2013-01-15 04:00:00,27.7,22.0,30.34,West,273,1.0,5.0,79,0.00,,OVC036,0.00,VWS V14.01,2013-01-15 09:00:00,
2013-01-15 04:04:00,27.7,22.0,30.34,WNW,293,1.0,1.0,79,0.00,,OVC030,0.00,VWS V14.01,2013-01-15 09:04:00,
2013-01-15 04:09:00,27.7,22.4,30.34,North,352,2.0,3.0,80,0.00,,OVC030,0.00,VWS V14.01,2013-01-15 09:09:00,
2013-01-15 04:14:00,27.6,22.2,30.34,WNW,300,1.0,3.0,80,0.00,,OVC030,0.00,VWS V14.01,2013-01-15 09:14:00,
2013-01-15 04:20:00,27.6,22.0,30.34,NW,313,2.0,5.0,79,0.00,,OVC030,0.00,VWS V14.01,2013-01-15 09:20:00,
2013-01-15 04:25:00,27.6,22.0,30.33,NNW,335,1.0,5.0,79,0.00,,OVC030,0.00,VWS V14.01,2013-01-15 09:25:00,
2013-01-15 04:30:00,27.6,22.2,30.33,NNW,342,0.0,5.0,80,0.00,,OVC030,0.00,VWS V14.01,2013-01-15 09:30:00,
2013-01-15 04:35:00,27.6,22.2,30.33,West,271,0.0,1.0,80,0.00,,OVC030,0.00,VWS V14.01,2013-01-15 09:35:00,
2013-01-15 04:40:00,27.6,22.2,30.33,WSW,257,1.0,2.0,80,0.00,,OVC030,0.00,VWS V14.01,2013-01-15 09:40:00,
2013-01-15 04:45:00,27.6,22.0,30.33,NW,312,3.0,3.0,79,0.00,,OVC030,0.00,VWS V14.01,2013-01-15 09:45:00,
2013-01-15 04:50:00,27.6,22.0,30.33,WNW,290,0.0,3.0,79,0.00,,OVC030,0.00,VWS V14.01,2013-01-15 09:50:00,
2013-01-15 04:55:00,27.6,22.2,30.33,West,264,0.0,3.0,80,0.00,,OVC030,0.00,VWS V14.01,2013-01-15 09:55:00,
2013-01-15 05:00:00,27.6,22.0,30.33,NNW,329,1.0,3.0,79,0.00,,OVC036,0.00,VWS V14.01,2013-01-15 10:00:00,
2013-01-15 05:01:00,27.6,22.0,30.33,WNW,295,0.0,3.0,79,0.00,,OVC030,0.00,VWS V14.01,2013-01-15 10:01:00,
2013-01-15 05:06:00,27.6,22.0,30.33,NNW,337,1.0,2.0,79,0.00,,OVC030,0.00,VWS V14.01,2013-01-15 10:06:00,
2013-01-15 05:11:00,27.6,22.0,30.33,NW,316,0.0,3.0,79,0.00,,OVC030,0.00,VWS V14.01,2013-01-15 10:11:00,
2013-01-15 05:16:00,27.5,22.1,30.33,West,277,0.0,3.0,80,0.00,,OVC030,0.00,VWS V14.01,2013-01-15 10:16:00,
2013-01-15 05:21:00,27.5,22.1,30.33,WSW,256,1.0,3.0,80,0.00,,OVC030,0.00,VWS V14.01,2013-01-15 10:21:00,
2013-01-15 05:26:00,27.5,22.1,30.33,WSW,245,0.0,3.0,80,0.00,,OVC030,0.00,VWS V14.01,2013-01-15 10:26:00,
2013-01-15 05:30:00,27.5,22.7,30.33,WSW,245,0.0,3.0,82,0.00,,OVC036,0.00,VWS V14.01,2013-01-15 10:30:00,
2013-01-15 05:31:00,27.5,22.7,30.33,WSW,245,0.0,3.0,82,0.00,,OVC030,0.00,VWS V14.01,2013-01-15 10:31:00,
2013-01-15 05:36:00,27.5,22.5,30.33,WSW,245,0.0,0.0,81,0.00,,OVC030,0.00,VWS V14.01,2013-01-15 10:36:00,
2013-01-15 05:41:00,27.5,22.5,30.33,WSW,245,0.0,0.0,81,0.00,,OVC030,0.00,VWS V14.01,2013-01-15 10:41:00,
2013-01-15 05:47:00,27.4,22.6,30.33,WSW,245,0.0,0.0,82,0.00,,OVC030,0.00,VWS V14.01,2013-01-15 10:47:00,
2013-01-15 05:52:00,27.4,22.6,30.33,West,262,0.0,0.0,82,0.00,,OVC030,0.00,VWS V14.01,2013-01-15 10:52:00,
2013-01-15 05:57:00,27.3,22.2,30.33,West,262,0.0,0.0,81,0.00,,OVC030,0.00,VWS V14.01,2013-01-15 10:57:00,
2013-01-15 06:00:00,27.2,22.1,30.33,West,262,0.0,0.0,81,0.00,,OVC036,0.00,VWS V14.01,2013-01-15 11:00:00,
2013-01-15 06:02:00,27.2,22.1,30.33,West,262,0.0,0.0,81,0.00,,OVC030,0.00,VWS V14.01,2013-01-15 11:02:00,
2013-01-15 06:07:00,27.0,22.2,30.33,West,262,0.0,0.0,82,0.00,,OVC030,0.00,VWS V14.01,2013-01-15 11:07:00,
2013-01-15 06:12:00,26.9,22.1,30.33,West,262,0.0,0.0,82,0.00,,OVC030,0.00,VWS V14.01,2013-01-15 11:12:00,
2013-01-15 06:17:00,27.0,22.2,30.33,West,262,0.0,0.0,82,0.00,,OVC030,0.00,VWS V14.01,2013-01-15 11:17:00,
2013-01-15 06:23:00,27.0,22.0,30.33,West,260,0.0,0.0,81,0.00,,OVC030,0.00,VWS V14.01,2013-01-15 11:23:00,
2013-01-15 06:28:00,27.2,22.1,30.34,West,263,1.0,1.0,81,0.00,,OVC030,0.00,VWS V14.01,2013-01-15 11:28:00,
2013-01-15 06:30:00,27.2,22.1,30.33,West,264,0.0,1.0,81,0.00,,OVC036,0.00,VWS V14.01,2013-01-15 11:30:00,
2013-01-15 06:33:00,27.2,22.1,30.33,West,264,0.0,1.0,81,0.00,,OVC030,0.00,VWS V14.01,2013-01-15 11:33:00,
2013-01-15 06:38:00,27.3,22.2,30.34,West,266,1.0,2.0,81,0.00,,OVC030,0.00,VWS V14.01,2013-01-15 11:38:00,
2013-01-15 06:43:00,27.4,22.4,30.34,WSW,253,1.0,2.0,81,0.00,,OVC030,0.00,VWS V14.01,2013-01-15 11:43:00,
2013-01-15 06:48:00,27.5,22.5,30.34,West,270,1.0,2.0,81,0.00,,OVC030,0.00,VWS V14.01,2013-01-15 11:48:00,
2013-01-15 06:53:00,27.5,22.1,30.35,West,271,1.0,2.0,80,0.00,,OVC030,0.00,VWS V14.01,2013-01-15 11:53:00,
2013-01-15 06:59:00,27.5,22.1,30.34,WSW,249,2.0,2.0,80,0.00,,OVC030,0.00,VWS V14.01,2013-01-15 11:59:00,
2013-01-15 07:00:00,27.5,22.1,30.35,WSW,255,1.0,2.0,80,0.00,,OVC036,0.00,VWS V14.01,2013-01-15 12:00:00,
2013-01-15 07:04:00,27.5,22.1,30.35,West,265,1.0,2.0,80,0.00,,OVC030,0.00,VWS V14.01,2013-01-15 12:04:00,
2013-01-15 07:09:00,27.4,22.0,30.35,WSW,252,1.0,3.0,80,0.00,,OVC030,0.00,VWS V14.01,2013-01-15 12:09:00,
2013-01-15 07:14:00,27.4,22.4,30.35,WSW,257,1.0,3.0,81,0.00,,OVC030,0.00,VWS V14.01,2013-01-15 12:14:00,
2013-01-15 07:19:00,27.4,22.4,30.35,West,263,1.0,3.0,81,0.00,,OVC030,0.00,VWS V14.01,2013-01-15 12:19:00,
2013-01-15 07:24:00,27.3,22.2,30.36,WSW,251,1.0,3.0,81,0.00,,OVC030,0.00,VWS V14.01,2013-01-15 12:24:00,
2013-01-15 07:29:00,27.3,22.2,30.36,West,263,2.0,3.0,81,0.00,,OVC030,0.00,VWS V14.01,2013-01-15 12:29:00,
2013-01-15 07:30:00,27.4,22.4,30.36,WSW,248,2.0,3.0,81,0.00,,OVC036,0.00,VWS V14.01,2013-01-15 12:30:00,
2013-01-15 07:34:00,27.4,22.4,30.36,WSW,255,2.0,2.0,81,0.00,,BKN032,0.00,VWS V14.01,2013-01-15 12:34:00,
2013-01-15 07:39:00,27.5,22.5,30.36,WSW,253,1.0,2.0,81,0.00,,BKN032,0.00,VWS V14.01,2013-01-15 12:39:00,
2013-01-15 07:44:00,27.5,22.1,30.36,West,273,2.0,3.0,80,0.00,,BKN032,0.00,VWS V14.01,2013-01-15 12:44:00,
2013-01-15 07:50:00,27.7,22.0,30.37,West,271,1.0,3.0,79,0.00,,BKN032,0.00,VWS V14.01,2013-01-15 12:50:00,
2013-01-15 07:55:00,27.7,22.4,30.37,West,259,1.0,3.0,80,0.00,,BKN032,0.00,VWS V14.01,2013-01-15 12:55:00,
2013-01-15 08:00:00,27.8,22.4,30.37,West,274,1.0,3.0,80,0.00,,BKN032,0.00,VWS V14.01,2013-01-15 13:00:00,
2013-01-15 08:05:00,27.8,22.4,30.38,West,262,1.0,1.0,80,0.00,,BKN032,0.00,VWS V14.01,2013-01-15 13:05:00,
2013-01-15 08:10:00,27.8,22.1,30.37,West,260,1.0,2.0,79,0.00,,BKN032,0.00,VWS V14.01,2013-01-15 13:10:00,
2013-01-15 08:15:00,28.0,22.3,30.38,West,268,1.0,2.0,79,0.00,,BKN032,0.00,VWS V14.01,2013-01-15 13:15:00,
2013-01-15 08:20:00,28.0,22.0,30.38,WSW,252,2.0,3.0,78,0.00,,BKN032,0.00,VWS V14.01,2013-01-15 13:20:00,
2013-01-15 08:26:00,28.1,22.1,30.37,WSW,255,1.0,3.0,78,0.00,,BKN032,0.00,VWS V14.01,2013-01-15 13:26:00,
2013-01-15 08:30:00,28.2,22.5,30.38,West,260,2.0,3.0,79,0.00,,OVC036,0.00,VWS V14.01,2013-01-15 13:30:00,
2013-01-15 08:31:00,28.2,22.2,30.38,West,263,1.0,3.0,78,0.00,,OVC032,0.00,VWS V14.01,2013-01-15 13:31:00,
2013-01-15 08:36:00,28.3,22.3,30.38,WSW,250,3.0,3.0,78,0.00,,OVC032,0.00,VWS V14.01,2013-01-15 13:36:00,
2013-01-15 08:41:00,28.3,22.3,30.38,West,260,3.0,3.0,78,0.00,,OVC032,0.00,VWS V14.01,2013-01-15 13:41:00,
2013-01-15 08:46:00,28.5,22.5,30.39,West,265,2.0,5.0,78,0.00,,OVC034,0.00,VWS V14.01,2013-01-15 13:46:00,
2013-01-15 08:51:00,28.6,22.3,30.38,West,271,1.0,5.0,77,0.00,,OVC034,0.00,VWS V14.01,2013-01-15 13:51:00,
2013-01-15 08:56:00,28.8,22.8,30.38,West,269,3.0,5.0,78,0.00,,OVC034,0.00,VWS V14.01,2013-01-15 13:56:00,
2013-01-15 09:00:00,29.0,23.0,30.39,West,270,2.0,5.0,78,0.00,,OVC036,0.00,VWS V14.01,2013-01-15 14:00:00,
2013-01-15 09:02:00,29.0,22.7,30.38,West,260,1.0,5.0,77,0.00,,OVC034,0.00,VWS V14.01,2013-01-15 14:02:00,
2013-01-15 09:07:00,29.3,23.3,30.39,West,260,2.0,3.0,78,0.00,,OVC034,0.00,VWS V14.01,2013-01-15 14:07:00,
2013-01-15 09:12:00,29.5,22.9,30.39,West,262,3.0,5.0,76,0.00,,OVC034,0.00,VWS V14.01,2013-01-15 14:12:00,
2013-01-15 09:17:00,29.6,22.7,30.39,West,264,3.0,5.0,75,0.00,,OVC034,0.00,VWS V14.01,2013-01-15 14:17:00,
2013-01-15 09:22:00,29.6,22.7,30.39,WNW,285,1.0,5.0,75,0.00,,OVC034,0.00,VWS V14.01,2013-01-15 14:22:00,
2013-01-15 09:27:00,29.7,22.4,30.39,West,269,2.0,5.0,74,0.00,,OVC034,0.00,VWS V14.01,2013-01-15 14:27:00,
2013-01-15 09:30:00,30.0,23.4,30.39,WSW,257,1.0,5.0,76,0.00,,OVC036,0.00,VWS V14.01,2013-01-15 14:30:00,
2013-01-15 09:32:00,30.0,23.4,30.39,WSW,257,1.0,5.0,76,0.00,,OVC034,0.00,VWS V14.01,2013-01-15 14:32:00,
2013-01-15 09:37:00,30.0,22.7,30.39,NNW,345,2.0,4.0,74,0.00,,OVC034,0.00,VWS V14.01,2013-01-15 14:37:00,
2013-01-15 09:43:00,30.3,23.3,30.39,WSW,257,1.0,4.0,75,0.00,,OVC034,0.00,VWS V14.01,2013-01-15 14:43:00,
2013-01-15 09:48:00,30.4,22.8,30.39,West,262,1.0,4.0,73,0.00,,SCT036,0.00,VWS V14.01,2013-01-15 14:48:00,
2013-01-15 09:53:00,30.6,23.0,30.39,WSW,257,1.0,4.0,73,0.00,,SCT036,0.00,VWS V14.01,2013-01-15 14:53:00,
2013-01-15 09:58:00,30.8,22.9,30.39,West,264,1.0,4.0,72,0.00,,SCT036,0.00,VWS V14.01,2013-01-15 14:58:00,
2013-01-15 10:00:00,31.0,23.4,30.39,WSW,253,2.0,4.0,73,0.00,,OVC036,0.00,VWS V14.01,2013-01-15 15:00:00,
2013-01-15 10:03:00,31.1,23.1,30.39,West,263,2.0,3.0,72,0.00,,SCT036,0.00,VWS V14.01,2013-01-15 15:03:00,
2013-01-15 10:08:00,31.4,23.8,30.39,West,259,0.0,3.0,73,0.00,,SCT036,0.00,VWS V14.01,2013-01-15 15:08:00,
2013-01-15 10:13:00,31.6,23.0,30.38,WSW,253,1.0,4.0,70,0.00,,SCT036,0.00,VWS V14.01,2013-01-15 15:13:00,
2013-01-15 10:18:00,31.7,22.7,30.37,WSW,258,2.0,4.0,69,0.00,,SCT036,0.00,VWS V14.01,2013-01-15 15:18:00,
2013-01-15 10:23:00,31.7,22.7,30.38,WSW,253,4.0,5.0,69,0.00,,SCT036,0.00,VWS V14.01,2013-01-15 15:23:00,
2013-01-15 10:28:00,31.8,23.1,30.38,WSW,255,1.0,5.0,70,0.00,,SCT036,0.00,VWS V14.01,2013-01-15 15:28:00,
2013-01-15 10:30:00,31.8,22.5,30.38,West,277,2.0,5.0,68,0.00,,OVC036,0.00,VWS V14.01,2013-01-15 15:30:00,
2013-01-15 10:34:00,31.9,22.5,30.38,West,280,1.0,3.0,68,0.00,,SCT036,0.00,VWS V14.01,2013-01-15 15:34:00,
2013-01-15 10:39:00,32.0,21.2,30.37,WSW,255,2.0,4.0,64,0.00,,SCT036,0.00,VWS V14.01,2013-01-15 15:39:00,
2013-01-15 10:44:00,31.7,22.0,30.38,West,269,1.0,4.0,67,0.00,,SCT036,0.00,VWS V14.01,2013-01-15 15:44:00,
2013-01-15 11:00:00,31.7,22.0,30.37,West,270,2.0,4.0,67,0.00,,OVC036,0.00,VWS V14.01,2013-01-15 16:00:00,
2013-01-15 11:37:00,31.7,22.0,30.36,WSW,258,3.0,3.0,67,0.00,,OVC036,0.00,VWS V14.01,2013-01-15 16:37:00,
2013-01-15 11:42:00,31.6,21.9,30.36,East,97,0.0,3.0,67,0.00,,OVC036,0.00,VWS V14.01,2013-01-15 16:42:00,
2013-01-15 11:47:00,31.7,21.7,30.36,WSW,256,1.0,5.0,66,0.00,,BKN036,0.00,VWS V14.01,2013-01-15 16:47:00,
2013-01-15 11:52:00,32.1,23.1,30.36,WSW,245,3.0,5.0,69,0.00,,BKN036,0.00,VWS V14.01,2013-01-15 16:52:00,
2013-01-15 11:57:00,32.1,21.7,30.35,West,259,1.0,5.0,65,0.00,,BKN036,0.00,VWS V14.01,2013-01-15 16:57:00,
2013-01-15 12:02:00,32.4,21.6,30.35,NW,312,1.0,5.0,64,0.00,,BKN036,0.00,VWS V14.01,2013-01-15 17:02:00,
2013-01-15 12:07:00,32.2,21.4,30.35,WSW,257,1.0,4.0,64,0.00,,BKN036,0.00,VWS V14.01,2013-01-15 17:07:00,
2013-01-15 12:12:00,32.4,22.0,30.35,WSW,255,0.0,4.0,65,0.00,,BKN036,0.00,VWS V14.01,2013-01-15 17:12:00,
2013-01-15 12:18:00,32.4,21.6,30.34,WSW,242,2.0,5.0,64,0.00,,BKN036,0.00,VWS V14.01,2013-01-15 17:18:00,
2013-01-15 12:23:00,32.6,22.9,30.34,NW,321,1.0,5.0,67,0.00,,BKN036,0.00,VWS V14.01,2013-01-15 17:23:00,
2013-01-15 12:28:00,32.3,21.9,30.34,North,8,2.0,7.0,65,0.00,,BKN036,0.00,VWS V14.01,2013-01-15 17:28:00,
2013-01-15 12:33:00,32.4,22.7,30.33,WSW,255,2.0,2.0,67,0.00,,BKN036,0.00,VWS V14.01,2013-01-15 17:33:00,
2013-01-15 12:38:00,32.5,22.1,30.33,WNW,300,2.0,3.0,65,0.00,,BKN036,0.00,VWS V14.01,2013-01-15 17:38:00,
2013-01-15 12:43:00,32.4,22.0,30.32,ENE,68,1.0,3.0,65,0.00,,BKN036,0.00,VWS V14.01,2013-01-15 17:43:00,
2013-01-15 12:48:00,32.3,21.5,30.32,NNW,347,2.0,3.0,64,0.00,,BKN034,0.00,VWS V14.01,2013-01-15 17:48:00,
2013-01-15 12:53:00,32.3,22.2,30.31,WNW,301,1.0,3.0,66,0.00,,BKN034,0.00,VWS V14.01,2013-01-15 17:53:00,
2013-01-15 12:58:00,32.7,22.6,30.30,West,269,1.0,3.0,66,0.00,,BKN034,0.00,VWS V14.01,2013-01-15 17:58:00,
2013-01-15 13:04:00,32.8,22.3,30.30,SW,228,1.0,4.0,65,0.00,,BKN034,0.00,VWS V14.01,2013-01-15 18:04:00,
2013-01-15 13:09:00,32.7,21.9,30.30,NNW,343,0.0,6.0,64,0.00,,BKN034,0.00,VWS V14.01,2013-01-15 18:09:00,
2013-01-15 13:14:00,32.7,22.2,30.30,WSW,245,1.0,6.0,65,0.00,,BKN034,0.00,VWS V14.01,2013-01-15 18:14:00,
2013-01-15 13:19:00,33.0,22.2,30.30,NW,314,3.0,6.0,64,0.00,,BKN034,0.00,VWS V14.01,2013-01-15 18:19:00,
2013-01-15 13:24:00,32.8,21.6,30.31,WNW,287,2.0,6.0,63,0.00,,BKN034,0.00,VWS V14.01,2013-01-15 18:24:00,
2013-01-15 13:29:00,33.0,22.2,30.30,WSW,252,1.0,6.0,64,0.00,,BKN034,0.00,VWS V14.01,2013-01-15 18:29:00,
2013-01-15 13:34:00,33.1,21.1,30.30,NW,304,1.0,3.0,61,0.00,,BKN034,0.00,VWS V14.01,2013-01-15 18:34:00,
2013-01-15 13:39:00,33.0,21.8,30.30,NNE,12,2.0,4.0,63,0.00,,BKN034,0.00,VWS V14.01,2013-01-15 18:39:00,
2013-01-15 13:44:00,33.0,21.4,30.30,NW,321,1.0,4.0,62,0.00,,CLR,0.00,VWS V14.01,2013-01-15 18:44:00,
2013-01-15 13:50:00,33.2,22.0,30.31,NW,316,1.0,4.0,63,0.00,,CLR,0.00,VWS V14.01,2013-01-15 18:50:00,
2013-01-15 13:55:00,33.8,22.2,30.30,NNW,348,3.0,4.0,62,0.00,,CLR,0.00,VWS V14.01,2013-01-15 18:55:00,
2013-01-15 14:00:00,34.0,22.0,30.31,NNW,329,1.0,4.0,61,0.00,,CLR,0.00,VWS V14.01,2013-01-15 19:00:00,
2013-01-15 14:05:00,34.0,21.6,30.31,WNW,290,1.0,6.0,60,0.00,,CLR,0.00,VWS V14.01,2013-01-15 19:05:00,
2013-01-15 14:10:00,33.9,21.9,30.30,NNE,20,2.0,7.0,61,0.00,,CLR,0.00,VWS V14.01,2013-01-15 19:10:00,
2013-01-15 14:15:00,33.8,21.0,30.31,NW,324,1.0,7.0,59,0.00,,CLR,0.00,VWS V14.01,2013-01-15 19:15:00,
2013-01-15 14:20:00,33.6,21.6,30.31,North,353,3.0,7.0,61,0.00,,CLR,0.00,VWS V14.01,2013-01-15 19:20:00,
2013-01-15 14:25:00,33.9,21.9,30.31,NNE,15,1.0,7.0,61,0.00,,CLR,0.00,VWS V14.01,2013-01-15 19:25:00,
2013-01-15 14:30:00,33.9,22.3,30.31,NW,307,3.0,7.0,62,0.00,,CLR,0.00,VWS V14.01,2013-01-15 19:30:00,
2013-01-15 14:36:00,33.9,22.3,30.31,NNE,32,2.0,4.0,62,0.00,,CLR,0.00,VWS V14.01,2013-01-15 19:36:00,
2013-01-15 14:41:00,33.7,22.5,30.31,North,4,3.0,5.0,63,0.00,,CLR,0.00,VWS V14.01,2013-01-15 19:41:00,
2013-01-15 14:46:00,33.6,22.0,30.30,NNE,20,1.0,5.0,62,0.00,,CLR,0.00,VWS V14.01,2013-01-15 19:46:00,
2013-01-15 14:51:00,33.4,22.5,30.30,NNW,334,2.0,6.0,64,0.00,,CLR,0.00,VWS V14.01,2013-01-15 19:51:00,
2013-01-15 14:56:00,33.4,22.2,30.31,North,357,3.0,6.0,63,0.00,,CLR,0.00,VWS V14.01,2013-01-15 19:56:00,
2013-01-15 15:01:00,33.2,22.0,30.30,North,360,1.0,6.0,63,0.00,,CLR,0.00,VWS V14.01,2013-01-15 20:01:00,
2013-01-15 15:06:00,33.2,22.0,30.31,NNW,335,3.0,6.0,63,0.00,,CLR,0.00,VWS V14.01,2013-01-15 20:06:00,
2013-01-15 15:11:00,33.2,22.0,30.31,NNE,15,2.0,6.0,63,0.00,,CLR,0.00,VWS V14.01,2013-01-15 20:11:00,
2013-01-15 15:17:00,33.0,21.4,30.31,North,360,1.0,6.0,62,0.00,,CLR,0.00,VWS V14.01,2013-01-15 20:17:00,
2013-01-15 15:22:00,32.7,21.5,30.31,North,355,3.0,6.0,63,0.00,,CLR,0.00,VWS V14.01,2013-01-15 20:22:00,
2013-01-15 15:27:00,32.6,21.4,30.31,NW,323,1.0,6.0,63,0.00,,CLR,0.00,VWS V14.01,2013-01-15 20:27:00,
2013-01-15 15:32:00,32.4,21.2,30.30,NNW,345,1.0,6.0,63,0.00,,CLR,0.00,VWS V14.01,2013-01-15 20:32:00,
2013-01-15 15:37:00,32.2,22.1,30.30,North,350,1.0,2.0,66,0.00,,CLR,0.00,VWS V14.01,2013-01-15 20:37:00,
2013-01-15 15:42:00,31.9,22.2,30.30,North,360,1.0,2.0,67,0.00,,CLR,0.00,VWS V14.01,2013-01-15 20:42:00,
2013-01-15 15:47:00,31.7,22.4,30.31,North,355,0.0,2.0,68,0.00,,CLR,0.00,VWS V14.01,2013-01-15 20:47:00,
2013-01-15 15:52:00,31.7,22.4,30.31,NNW,329,1.0,2.0,68,0.00,,CLR,0.00,VWS V14.01,2013-01-15 20:52:00,
2013-01-15 15:58:00,31.6,22.3,30.32,North,360,2.0,2.0,68,0.00,,CLR,0.00,VWS V14.01,2013-01-15 20:58:00,
2013-01-15 16:03:00,31.7,22.7,30.31,North,360,1.0,1.0,69,0.00,,FEW036,0.00,VWS V14.01,2013-01-15 21:03:00,
2013-01-15 16:08:00,31.6,22.3,30.32,NNW,340,1.0,4.0,68,0.00,,FEW036,0.00,VWS V14.01,2013-01-15 21:08:00,
2013-01-15 16:13:00,31.6,21.6,30.32,NNW,345,0.0,4.0,66,0.00,,FEW036,0.00,VWS V14.01,2013-01-15 21:13:00,
2013-01-15 16:18:00,31.6,21.9,30.32,NNW,345,0.0,4.0,67,0.00,,FEW036,0.00,VWS V14.01,2013-01-15 21:18:00,
2013-01-15 16:23:00,31.5,21.5,30.32,NW,314,1.0,4.0,66,0.00,,FEW036,0.00,VWS V14.01,2013-01-15 21:23:00,
2013-01-15 16:28:00,31.4,22.1,30.32,NNW,340,0.0,4.0,68,0.00,,FEW036,0.00,VWS V14.01,2013-01-15 21:28:00,
2013-01-15 16:34:00,31.2,21.9,30.32,NNW,340,0.0,0.0,68,0.00,,FEW036,0.00,VWS V14.01,2013-01-15 21:34:00,
2013-01-15 16:39:00,30.9,21.9,30.32,NNW,340,0.0,1.0,69,0.00,,FEW036,0.00,VWS V14.01,2013-01-15 21:39:00,
2013-01-15 16:44:00,30.6,22.0,30.32,NNW,340,0.0,1.0,70,0.00,,FEW036,0.00,VWS V14.01,2013-01-15 21:44:00,
2013-01-15 16:49:00,30.3,21.7,30.32,NNW,340,0.0,1.0,70,0.00,,FEW036,0.00,VWS V14.01,2013-01-15 21:49:00,
2013-01-15 16:54:00,30.1,21.9,30.31,NNW,340,0.0,1.0,71,0.00,,FEW036,0.00,VWS V14.01,2013-01-15 21:54:00,
2013-01-15 16:59:00,30.0,22.1,30.31,NNW,340,0.0,1.0,72,0.00,,FEW036,0.00,VWS V14.01,2013-01-15 21:59:00,
2013-01-15 17:04:00,29.8,22.2,30.31,NNW,340,0.0,0.0,73,0.00,,FEW036,0.00,VWS V14.01,2013-01-15 22:04:00,
2013-01-15 17:10:00,29.6,22.4,30.31,NNW,340,0.0,0.0,74,0.00,,FEW036,0.00,VWS V14.01,2013-01-15 22:10:00,
2013-01-15 17:15:00,29.3,22.4,30.31,NNW,340,0.0,0.0,75,0.00,,FEW036,0.00,VWS V14.01,2013-01-15 22:15:00,
2013-01-15 17:20:00,29.1,22.5,30.31,NNW,340,0.0,0.0,76,0.00,,FEW036,0.00,VWS V14.01,2013-01-15 22:20:00,
2013-01-15 17:25:00,28.8,22.2,30.31,NNW,340,0.0,0.0,76,0.00,,FEW036,0.00,VWS V14.01,2013-01-15 22:25:00,
2013-01-15 17:30:00,28.7,22.4,30.31,NNW,340,0.0,0.0,77,0.00,,FEW036,0.00,VWS V14.01,2013-01-15 22:30:00,
2013-01-15 17:35:00,28.6,22.9,30.31,NNW,340,0.0,0.0,79,0.00,,FEW036,0.00,VWS V14.01,2013-01-15 22:35:00,
2013-01-15 17:40:00,28.6,22.9,30.31,NNW,340,0.0,0.0,79,0.00,,FEW036,0.00,VWS V14.01,2013-01-15 22:40:00,
2013-01-15 17:45:00,28.7,23.0,30.31,NNW,340,0.0,0.0,79,0.00,,CLR,0.00,VWS V14.01,2013-01-15 22:45:00,
2013-01-15 17:51:00,28.8,22.8,30.31,NNW,340,0.0,0.0,78,0.00,,CLR,0.00,VWS V14.01,2013-01-15 22:51:00,
2013-01-15 17:56:00,28.8,22.5,30.31,NNW,340,0.0,0.0,77,0.00,,CLR,0.00,VWS V14.01,2013-01-15 22:56:00,
2013-01-15 18:01:00,28.9,22.3,30.31,NNW,340,0.0,0.0,76,0.00,,CLR,0.00,VWS V14.01,2013-01-15 23:01:00,
2013-01-15 18:06:00,28.9,22.3,30.31,NNW,340,0.0,0.0,76,0.00,,CLR,0.00,VWS V14.01,2013-01-15 23:06:00,
2013-01-15 18:11:00,28.9,22.9,30.31,NNW,340,0.0,0.0,78,0.00,,CLR,0.00,VWS V14.01,2013-01-15 23:11:00,
2013-01-15 18:16:00,29.0,23.3,30.31,NNW,340,0.0,0.0,79,0.00,,CLR,0.00,VWS V14.01,2013-01-15 23:16:00,
2013-01-15 18:21:00,28.9,23.2,30.31,NNW,340,0.0,0.0,79,0.00,,CLR,0.00,VWS V14.01,2013-01-15 23:21:00,
2013-01-15 18:27:00,28.9,23.2,30.30,NNW,340,0.0,0.0,79,0.00,,CLR,0.00,VWS V14.01,2013-01-15 23:27:00,
2013-01-15 18:32:00,28.9,23.2,30.30,NNW,340,0.0,0.0,79,0.00,,CLR,0.00,VWS V14.01,2013-01-15 23:32:00,
2013-01-15 18:37:00,29.0,23.9,30.30,NNW,340,0.0,0.0,81,0.00,,CLR,0.00,VWS V14.01,2013-01-15 23:37:00,
2013-01-15 18:42:00,29.0,23.9,30.29,NNW,340,0.0,0.0,81,0.00,,CLR,0.00,VWS V14.01,2013-01-15 23:42:00,
2013-01-15 18:47:00,29.1,23.7,30.29,NNW,340,0.0,0.0,80,0.00,,CLR,0.00,VWS V14.01,2013-01-15 23:47:00,
2013-01-15 18:52:00,29.1,23.7,30.29,NNW,340,0.0,0.0,80,0.00,,CLR,0.00,VWS V14.01,2013-01-15 23:52:00,
2013-01-15 18:57:00,29.2,23.8,30.29,NNW,340,0.0,0.0,80,0.00,,CLR,0.00,VWS V14.01,2013-01-15 23:57:00,
2013-01-15 19:02:00,29.2,23.5,30.29,NNW,340,0.0,0.0,79,0.00,,CLR,0.00,VWS V14.01,2013-01-16 00:02:00,
2013-01-15 19:07:00,29.3,23.9,30.30,NNW,340,0.0,0.0,80,0.00,,CLR,0.00,VWS V14.01,2013-01-16 00:07:00,
2013-01-15 19:12:00,29.4,23.7,30.29,NNW,340,0.0,0.0,79,0.00,,CLR,0.00,VWS V14.01,2013-01-16 00:12:00,
2013-01-15 19:17:00,29.4,24.0,30.30,NNW,340,0.0,0.0,80,0.00,,CLR,0.00,VWS V14.01,2013-01-16 00:17:00,
2013-01-15 19:23:00,29.4,24.0,30.29,NNW,340,0.0,0.0,80,0.00,,CLR,0.00,VWS V14.01,2013-01-16 00:23:00,
2013-01-15 19:28:00,29.4,24.0,30.29,NNW,340,0.0,0.0,80,0.00,,CLR,0.00,VWS V14.01,2013-01-16 00:28:00,
2013-01-15 19:33:00,29.3,23.6,30.29,NNW,340,0.0,0.0,79,0.00,,CLR,0.00,VWS V14.01,2013-01-16 00:33:00,
2013-01-15 19:38:00,29.3,23.6,30.29,NNW,340,0.0,0.0,79,0.00,,CLR,0.00,VWS V14.01,2013-01-16 00:38:00,
2013-01-15 19:43:00,29.3,23.6,30.29,NNW,340,0.0,0.0,79,0.00,,CLR,0.00,VWS V14.01,2013-01-16 00:43:00,
2013-01-15 19:48:00,29.4,23.4,30.29,NNW,340,0.0,0.0,78,0.00,,CLR,0.00,VWS V14.01,2013-01-16 00:48:00,
2013-01-15 19:53:00,29.3,23.6,30.28,NNW,340,0.0,0.0,79,0.00,,CLR,0.00,VWS V14.01,2013-01-16 00:53:00,
2013-01-15 19:58:00,29.4,23.7,30.28,NNW,340,0.0,0.0,79,0.00,,CLR,0.00,VWS V14.01,2013-01-16 00:58:00,
2013-01-15 20:04:00,29.4,23.7,30.28,NNW,340,0.0,0.0,79,0.00,,CLR,0.00,VWS V14.01,2013-01-16 01:04:00,
2013-01-15 20:09:00,29.3,23.6,30.27,NNW,340,0.0,0.0,79,0.00,,CLR,0.00,VWS V14.01,2013-01-16 01:09:00,
2013-01-15 20:14:00,29.3,23.3,30.28,NNW,340,0.0,0.0,78,0.00,,CLR,0.00,VWS V14.01,2013-01-16 01:14:00,
2013-01-15 20:19:00,29.3,23.3,30.27,NNW,340,0.0,0.0,78,0.00,,CLR,0.00,VWS V14.01,2013-01-16 01:19:00,
2013-01-15 20:24:00,29.4,23.7,30.27,NNW,340,0.0,0.0,79,0.00,,CLR,0.00,VWS V14.01,2013-01-16 01:24:00,
2013-01-15 20:29:00,29.4,23.7,30.26,NNW,340,0.0,0.0,79,0.00,,CLR,0.00,VWS V14.01,2013-01-16 01:29:00,
2013-01-15 20:34:00,29.3,23.6,30.27,NNW,340,0.0,0.0,79,0.00,,CLR,0.00,VWS V14.01,2013-01-16 01:34:00,
2013-01-15 20:39:00,29.3,23.9,30.27,NNW,340,0.0,0.0,80,0.00,,CLR,0.00,VWS V14.01,2013-01-16 01:39:00,
2013-01-15 20:45:00,29.3,23.9,30.28,NNW,340,0.0,0.0,80,0.00,,CLR,0.00,VWS V14.01,2013-01-16 01:45:00,
2013-01-15 20:50:00,29.2,23.8,30.28,NNW,340,0.0,0.0,80,0.00,,CLR,0.00,VWS V14.01,2013-01-16 01:50:00,
2013-01-15 20:55:00,29.2,23.8,30.28,NNW,340,0.0,0.0,80,0.00,,CLR,0.00,VWS V14.01,2013-01-16 01:55:00,
2013-01-15 21:00:00,29.1,23.7,30.27,NNW,340,0.0,0.0,80,0.00,,CLR,0.00,VWS V14.01,2013-01-16 02:00:00,
2013-01-15 21:05:00,29.0,23.6,30.26,NNW,340,0.0,0.0,80,0.00,,CLR,0.00,VWS V14.01,2013-01-16 02:05:00,
2013-01-15 21:10:00,29.0,23.3,30.26,NNW,340,0.0,0.0,79,0.00,,CLR,0.00,VWS V14.01,2013-01-16 02:10:00,
2013-01-15 21:15:00,29.0,23.6,30.25,NNW,340,0.0,0.0,80,0.00,,CLR,0.00,VWS V14.01,2013-01-16 02:15:00,
2013-01-15 21:20:00,29.0,23.9,30.25,NNW,340,0.0,0.0,81,0.00,,CLR,0.00,VWS V14.01,2013-01-16 02:20:00,
2013-01-15 21:25:00,29.0,24.2,30.25,NNW,340,0.0,0.0,82,0.00,,CLR,0.00,VWS V14.01,2013-01-16 02:25:00,
2013-01-15 21:30:00,29.0,24.2,30.25,NNW,340,0.0,0.0,82,0.00,,CLR,0.00,VWS V14.01,2013-01-16 02:30:00,
2013-01-15 21:36:00,28.9,23.8,30.25,NNW,340,0.0,0.0,81,0.00,,CLR,0.00,VWS V14.01,2013-01-16 02:36:00,
2013-01-15 21:41:00,29.0,23.6,30.25,NNW,340,0.0,0.0,80,0.00,,CLR,0.00,VWS V14.01,2013-01-16 02:41:00,
2013-01-15 21:46:00,28.9,23.2,30.25,NNW,340,0.0,0.0,79,0.00,,CLR,0.00,VWS V14.01,2013-01-16 02:46:00,
2013-01-15 21:51:00,29.0,23.3,30.25,NNW,342,0.0,0.0,79,0.00,,CLR,0.00,VWS V14.01,2013-01-16 02:51:00,
2013-01-15 21:56:00,29.2,24.1,30.25,NNW,340,0.0,0.0,81,0.00,,CLR,0.00,VWS V14.01,2013-01-16 02:56:00,
2013-01-15 22:01:00,29.3,24.2,30.24,SE,131,0.0,2.0,81,0.00,,CLR,0.00,VWS V14.01,2013-01-16 03:01:00,
2013-01-15 22:06:00,29.3,24.2,30.24,East,94,0.0,1.0,81,0.00,,CLR,0.00,VWS V14.01,2013-01-16 03:06:00,
2013-01-15 22:11:00,29.3,24.2,30.24,SE,128,1.0,2.0,81,0.00,,CLR,0.00,VWS V14.01,2013-01-16 03:11:00,
2013-01-15 22:16:00,29.3,24.2,30.24,ESE,113,1.0,3.0,81,0.00,,CLR,0.00,VWS V14.01,2013-01-16 03:16:00,
2013-01-15 22:22:00,29.4,24.3,30.24,ESE,118,1.0,3.0,81,0.00,,CLR,0.00,VWS V14.01,2013-01-16 03:22:00,
2013-01-15 22:27:00,29.4,24.3,30.24,ESE,118,0.0,3.0,81,0.00,,CLR,0.00,VWS V14.01,2013-01-16 03:27:00,
2013-01-15 22:32:00,29.4,24.3,30.23,ESE,113,1.0,3.0,81,0.00,,CLR,0.00,VWS V14.01,2013-01-16 03:32:00,
2013-01-15 22:37:00,29.4,24.6,30.22,SE,129,0.0,2.0,82,0.00,,CLR,0.00,VWS V14.01,2013-01-16 03:37:00,
2013-01-15 22:42:00,29.4,24.3,30.22,ESE,122,0.0,3.0,81,0.00,,CLR,0.00,VWS V14.01,2013-01-16 03:42:00,
2013-01-15 22:47:00,29.3,24.5,30.22,ESE,115,0.0,3.0,82,0.00,,CLR,0.00,VWS V14.01,2013-01-16 03:47:00,
2013-01-15 22:52:00,29.3,24.2,30.22,SE,126,1.0,3.0,81,0.00,,CLR,0.00,VWS V14.01,2013-01-16 03:52:00,
2013-01-15 22:58:00,29.3,24.2,30.22,SE,129,1.0,3.0,81,0.00,,CLR,0.00,VWS V14.01,2013-01-16 03:58:00,
2013-01-15 23:03:00,29.3,24.5,30.22,SE,134,0.0,1.0,82,0.00,,CLR,0.00,VWS V14.01,2013-01-16 04:03:00,
2013-01-15 23:08:00,29.3,24.2,30.21,SE,144,1.0,3.0,81,0.00,,CLR,0.00,VWS V14.01,2013-01-16 04:08:00,
2013-01-15 23:13:00,29.3,24.5,30.21,ESE,113,0.0,3.0,82,0.00,,CLR,0.00,VWS V14.01,2013-01-16 04:13:00,
2013-01-15 23:18:00,29.4,24.3,30.21,SE,145,1.0,3.0,81,0.00,,CLR,0.00,VWS V14.01,2013-01-16 04:18:00,
2013-01-15 23:23:00,29.4,24.3,30.20,SSE,156,1.0,3.0,81,0.00,,CLR,0.00,VWS V14.01,2013-01-16 04:23:00,
2013-01-15 23:28:00,29.4,24.3,30.20,SSE,149,0.0,3.0,81,0.00,,CLR,0.00,VWS V14.01,2013-01-16 04:28:00,
2013-01-15 23:33:00,29.4,24.6,30.20,SE,131,0.0,0.0,82,0.00,,CLR,0.00,VWS V14.01,2013-01-16 04:33:00,
2013-01-15 23:38:00,29.3,24.2,30.20,SE,124,0.0,1.0,81,0.00,,CLR,0.00,VWS V14.01,2013-01-16 04:38:00,
2013-01-15 23:44:00,29.4,24.6,30.20,SE,125,0.0,1.0,82,0.00,,CLR,0.00,VWS V14.01,2013-01-16 04:44:00,
2013-01-15 23:49:00,29.4,24.6,30.20,East,98,0.0,1.0,82,0.00,,CLR,0.00,VWS V14.01,2013-01-16 04:49:00,
2013-01-15 23:54:00,29.4,24.6,30.20,East,86,0.0,1.0,82,0.00,,CLR,0.00,VWS V14.01,2013-01-16 04:54:00,
2013-01-15 23:59:00,29.4,24.6,30.18,East,96,0.0,1.0,82,0.00,,CLR,0.00,VWS V14.01,2013-01-16 04:59:00,